User: anonymous   Login
Location: Dampvalley
(47.9094°N, 6.1967°E)
Time: 19:51:34
(UTC+00:00)
Language:

Cosmos 2297 Rocket - Orbit

View from above orbital plane
View from above orbital plane
View from above satellite
View from above satellite

Ground track
Ground track

The orbit data is extracted from the following two-line orbital elements,

1 23405U 94077B   21136.32258703  .00000087  00000-0  69200-4 0  9990
2 23405  70.9829  90.5561 0004536 294.0332  66.0315 14.15242067367445
Epoch (UTC): 16 May 2021 07:44:31
Eccentricity: 0.0004536
inclination: 70.9829°
perigee height: 838 km
apogee height: 845 km
right ascension of ascending node: 90.5561°
argument of perigee: 294.0332°
revolutions per day: 14.15242067
mean anomaly at epoch: 66.0315°
orbit number at epoch: 36744

The dashed part of the orbit path shows where the satellite is in the earth's shadow,  

DLR